• Em Portugal
  • Lista de países
  • Para 7 dias
  • Temperatura da água
  • Mapas de satélite
  • Mapa do tempo
  • Widgets de tempo
  • user-avatar
    Iniciar Sessão

    Previsão horária em Rauson

    Hoje, 11 Dezembro, Segunda-feira

    Tempo Temperatura Precipitação Vento Pressão Humidade
    00:00 +18°C° 0 mm 8 m/s 759 mmHg 35%
    01:00 +20°C° 0 mm 8 m/s 759 mmHg 36%
    02:00 +20°C° 0 mm 8 m/s 758 mmHg 36%
    03:00 +20°C° 0 mm 8 m/s 758 mmHg 36%
    04:00 +20°C° 0 mm 8 m/s 757 mmHg 36%
    05:00 +20°C° 0 mm 8 m/s 757 mmHg 36%
    06:00 +23°C° 0 mm 8 m/s 757 mmHg 32%
    07:00 +26°C° 0 mm 9 m/s 756 mmHg 28%
    08:00 +29°C° 0 mm 9 m/s 756 mmHg 24%
    09:00 +32°C° 0 mm 9 m/s 755 mmHg 21%
    10:00 +35°C° 0 mm 9 m/s 755 mmHg 18%
    11:00 +38°C° 0 mm 8 m/s 754 mmHg 15%
    12:00 +39°C° 0 mm 9 m/s 753 mmHg 13%
    13:00 +40°C° 0 mm 10 m/s 752 mmHg 12%
    14:00 +42°C° 0 mm 10 m/s 751 mmHg 11%
    15:00 +42°C° 0 mm 11 m/s 750 mmHg 11%
    16:00 +42°C° 0 mm 12 m/s 749 mmHg 11%
    17:00 +42°C° 0 mm 12 m/s 749 mmHg 10%
    18:00 +41°C° 0 mm 12 m/s 748 mmHg 11%
    19:00 +39°C° 0 mm 12 m/s 748 mmHg 12%
    20:00 +38°C° 0 mm 11 m/s 747 mmHg 13%
    21:00 +37°C° 0 mm 11 m/s 748 mmHg 13%
    22:00 +36°C° 0 mm 10 m/s 748 mmHg 14%
    23:00 +34°C° 0 mm 9 m/s 749 mmHg 14%

    Amanhã, 12 Dezembro, Terça-feira

    Tempo Temperatura Precipitação Vento Pressão Humidade
    00:00 +33°C° 0 mm 9 m/s 749 mmHg 17%
    01:00 +31°C° 0 mm 10 m/s 750 mmHg 19%
    02:00 +29°C° 0 mm 10 m/s 751 mmHg 22%
    03:00 +27°C° 0 mm 10 m/s 751 mmHg 25%
    04:00 +26°C° 0 mm 9 m/s 752 mmHg 29%
    05:00 +24°C° 0 mm 9 m/s 753 mmHg 32%
    06:00 +23°C° 0 mm 9 m/s 754 mmHg 38%
    07:00 +22°C° 0 mm 9 m/s 755 mmHg 43%
    08:00 +21°C° 0 mm 9 m/s 756 mmHg 49%
    09:00 +21°C° 0 mm 8 m/s 757 mmHg 45%
    10:00 +22°C° 0 mm 8 m/s 757 mmHg 41%
    11:00 +23°C° 0 mm 8 m/s 758 mmHg 37%
    12:00 +23°C° 0 mm 7 m/s 758 mmHg 36%
    13:00 +23°C° 0 mm 7 m/s 758 mmHg 35%
    14:00 +23°C° 0 mm 7 m/s 758 mmHg 35%
    15:00 +22°C° 0 mm 7 m/s 758 mmHg 37%
    16:00 +21°C° 0 mm 7 m/s 758 mmHg 40%
    17:00 +21°C° 0 mm 7 m/s 758 mmHg 42%
    18:00 +18°C° 0 mm 8 m/s 758 mmHg 48%
    19:00 +17°C° 0 mm 8 m/s 758 mmHg 54%
    20:00 +16°C° 0 mm 8 m/s 757 mmHg 60%
    21:00 +16°C° 0 mm 8 m/s 758 mmHg 59%
    22:00 +16°C° 0 mm 8 m/s 758 mmHg 58%
    23:00 +16°C° 0 mm 7 m/s 758 mmHg 57%

    Depois de amanhã, 13 Dezembro, Quarta-feira

    Tempo Temperatura Precipitação Vento Pressão Humidade
    00:00 +16°C° 0 mm 7 m/s 758 mmHg 58%
    01:00 +16°C° 0 mm 6 m/s 757 mmHg 58%
    02:00 +16°C° 0 mm 5 m/s 757 mmHg 58%
    03:00 +16°C° 0 mm 6 m/s 757 mmHg 61%
    04:00 +16°C° 0 mm 6 m/s 757 mmHg 63%
    05:00 +16°C° 0 mm 6 m/s 756 mmHg 66%
    06:00 +18°C° 0 mm 7 m/s 756 mmHg 59%
    07:00 +20°C° 0 mm 7 m/s 756 mmHg 53%
    08:00 +22°C° 0 mm 7 m/s 756 mmHg 46%
    09:00 +24°C° 0 mm 7 m/s 756 mmHg 40%
    10:00 +27°C° 0 mm 6 m/s 756 mmHg 34%
    11:00 +29°C° 0 mm 5 m/s 755 mmHg 28%
    12:00 +30°C° 0 mm 5 m/s 755 mmHg 25%
    13:00 +32°C° 0 mm 5 m/s 754 mmHg 21%
    14:00 +33°C° 0 mm 5 m/s 754 mmHg 18%
    15:00 +33°C° 0 mm 6 m/s 754 mmHg 18%
    16:00 +34°C° 0 mm 7 m/s 753 mmHg 17%
    17:00 +34°C° 0 mm 7 m/s 753 mmHg 17%
    18:00 +33°C° 0 mm 7 m/s 753 mmHg 19%
    19:00 +32°C° 0 mm 7 m/s 753 mmHg 21%
    20:00 +30°C° 0 mm 7 m/s 753 mmHg 23%
    21:00 +29°C° 0 mm 7 m/s 754 mmHg 24%
    22:00 +28°C° 0 mm 7 m/s 754 mmHg 26%
    23:00 +27°C° 0 mm 7 m/s 754 mmHg 27%

    14 Dezembro, Quinta-feira

    Tempo Temperatura Precipitação Vento Pressão Humidade
    00:00 +27°C° 0 mm 7 m/s 754 mmHg 29%
    01:00 +26°C° 0 mm 8 m/s 754 mmHg 30%
    02:00 +24°C° 0 mm 8 m/s 753 mmHg 32%
    03:00 +24°C° 0 mm 7 m/s 753 mmHg 33%
    04:00 +23°C° 0 mm 7 m/s 753 mmHg 35%
    05:00 +22°C° 0 mm 6 m/s 753 mmHg 36%
    06:00 +24°C° 0 mm 8 m/s 753 mmHg 33%
    07:00 +26°C° 0 mm 9 m/s 753 mmHg 31%
    08:00 +27°C° 0 mm 10 m/s 753 mmHg 28%
    09:00 +28°C° 0 mm 11 m/s 752 mmHg 27%
    10:00 +29°C° 0 mm 11 m/s 752 mmHg 25%
    11:00 +32°C° 0 mm 12 m/s 751 mmHg 23%
    12:00 +32°C° 0 mm 12 m/s 751 mmHg 20%
    13:00 +32°C° 0 mm 13 m/s 751 mmHg 18%
    14:00 +32°C° 0 mm 14 m/s 751 mmHg 15%
    15:00 +32°C° 0 mm 13 m/s 752 mmHg 13%
    16:00 +32°C° 0 mm 12 m/s 752 mmHg 11%
    17:00 +31°C° 0 mm 11 m/s 753 mmHg 9%
    18:00 +28°C° 0 mm 9 m/s 753 mmHg 12%
    19:00 +26°C° 0 mm 8 m/s 754 mmHg 15%
    20:00 +23°C° 0 mm 6 m/s 755 mmHg 18%
    21:00 +22°C° 0 mm 4 m/s 755 mmHg 21%
    22:00 +21°C° 0 mm 3 m/s 756 mmHg 24%
    23:00 +19°C° 0 mm 2 m/s 756 mmHg 27%

    15 Dezembro, Sexta-feira

    Tempo Temperatura Precipitação Vento Pressão Humidade
    00:00 +19°C° 0 mm 3 m/s 756 mmHg 27%
    01:00 +19°C° 0 mm 4 m/s 756 mmHg 27%
    02:00 +19°C° 0 mm 5 m/s 756 mmHg 27%
    03:00 +19°C° 0 mm 6 m/s 756 mmHg 29%
    04:00 +17°C° 0 mm 6 m/s 756 mmHg 31%
    05:00 +17°C° 0 mm 7 m/s 755 mmHg 33%
    06:00 +20°C° 0 mm 7 m/s 755 mmHg 29%
    07:00 +23°C° 0 mm 7 m/s 755 mmHg 24%
    08:00 +26°C° 0 mm 7 m/s 755 mmHg 19%
    09:00 +27°C° 0 mm 7 m/s 754 mmHg 18%
    10:00 +29°C° 0 mm 7 m/s 753 mmHg 18%
    11:00 +30°C° 0 mm 7 m/s 752 mmHg 17%
    12:00 +33°C° 0 mm 7 m/s 751 mmHg 16%
    13:00 +34°C° 0 mm 7 m/s 750 mmHg 16%
    14:00 +35°C° 0 mm 8 m/s 749 mmHg 15%
    15:00 +35°C° 0 mm 8 m/s 748 mmHg 14%
    16:00 +35°C° 0 mm 8 m/s 747 mmHg 14%
    17:00 +37°C° 0 mm 8 m/s 746 mmHg 13%
    18:00 +35°C° 0 mm 8 m/s 745 mmHg 14%
    19:00 +34°C° 0 mm 8 m/s 745 mmHg 14%
    20:00 +33°C° 0 mm 8 m/s 744 mmHg 14%
    21:00 +32°C° 0 mm 7 m/s 744 mmHg 15%
    22:00 +30°C° 0 mm 7 m/s 744 mmHg 16%
    23:00 +29°C° 0 mm 6 m/s 744 mmHg 17%

    16 Dezembro, Sábado

    Tempo Temperatura Precipitação Vento Pressão Humidade
    00:00 +28°C° 0 mm 7 m/s 743 mmHg 18%
    01:00 +28°C° 0 mm 9 m/s 743 mmHg 20%
    02:00 +27°C° 0 mm 10 m/s 742 mmHg 21%
    03:00 +26°C° 0 mm 10 m/s 742 mmHg 23%
    04:00 +26°C° 0 mm 10 m/s 743 mmHg 25%
    05:00 +24°C° 0 mm 11 m/s 743 mmHg 27%
    06:00 +22°C° 0 mm 12 m/s 744 mmHg 25%
    07:00 +19°C° 0 mm 14 m/s 745 mmHg 23%
    08:00 +18°C° 0 mm 16 m/s 746 mmHg 20%
    09:00 +18°C° 0 mm 16 m/s 747 mmHg 18%
    10:00 +19°C° 0 mm 16 m/s 748 mmHg 16%
    11:00 +19°C° 0 mm 16 m/s 748 mmHg 13%
    12:00 +20°C° 0 mm 16 m/s 749 mmHg 13%
    13:00 +20°C° 0 mm 16 m/s 749 mmHg 12%
    14:00 +22°C° 0 mm 16 m/s 750 mmHg 12%
    15:00 +20°C° 0 mm 16 m/s 751 mmHg 13%
    16:00 +19°C° 0 mm 16 m/s 752 mmHg 15%
    17:00 +18°C° 0 mm 16 m/s 753 mmHg 17%
    18:00 +18°C° 0 mm 15 m/s 754 mmHg 17%
    19:00 +17°C° 0 mm 13 m/s 755 mmHg 17%
    20:00 +17°C° 0 mm 11 m/s 756 mmHg 16%
    21:00 +17°C° 0 mm 11 m/s 757 mmHg 18%
    22:00 +16°C° 0 mm 10 m/s 758 mmHg 21%
    23:00 +16°C° 0 mm 9 m/s 759 mmHg 23%
    Mostrar mais